sat.trackr.live / text

‹ back to catalog

STARLINK-35435

NORAD 66464 · 2025-262J

PAYLOAD ACTIVE UNKNOWN

§ Identity

Operator
Country
US
Launch date
2025-11-15
Launch site
AFETR
Launch vehicle
Mass (kg)
RCS (m²)

Purposes: comms

External: N2YO · Heavens-Above · Gunter

§ Orbital elements

Epoch: 2026-05-24T22:43:00.083136Z

Period
94.27 min
Inclination
43.0006°
Eccentricity
0.0001212
Mean motion
15.27602535 rev/d
Perigee alt
482.2 km
Apogee alt
483.8 km
Semi-major
6,861.1 km
B*
5.1208e-4
RAAN
225.0975°
Arg perigee
265.8760°
Mean anomaly
94.1953°
Rev number
3,057

§ Raw data

STARLINK-354351 66464U 25262J   26144.94652874  .00013865  00000+0  51208-3 0  99962 66464  43.0006 225.0975 0001212 265.8760  94.1953 15.27602535 30573

JSON: /api/v1/satellites/66464 · /tle

For live sub-satellite position, see the globe view (requires WebGL).

§ Visibility from observer

Set your observer location to see the next 7 days of passes ≥ 10°. The values pass through the URL so the page stays shareable.

No JS? Fill the form by hand. The geolocation button needs JavaScript.